Location: Newark
(42.2947°N, 5.1925°W)
Time: 21:06:22
(UTC+00:00)

Envisat - Visible Passes

Search period start: 15 December 2019 00:00
Search period end: 25 December 2019 00:00
Orbit: 764 x 766 km, 98.1° (Epoch: 15 December)

Date Brightness Start Highest point End Pass type
(mag) Time Alt. Az. Time Alt. Az. Time Alt. Az.
15 Dec 4.6 06:36:54 10° NNE 06:41:40 39° E 06:46:24 10° SSE visible
15 Dec 3.1 17:51:48 10° SSE 17:56:44 55° ENE 18:01:42 10° N visible
15 Dec 5.7 19:32:40 10° SW 19:36:05 18° W 19:39:31 10° NW visible
16 Dec 5.9 06:01:10 10° NE 06:04:37 18° E 06:08:03 10° SE visible
16 Dec 3.9 17:16:04 10° ESE 17:20:13 26° ENE 17:24:22 10° N visible
16 Dec 4.4 18:54:18 10° SSW 18:59:01 39° W 19:03:47 10° NNW visible
17 Dec 3.4 07:02:09 10° NNE 07:07:15 70° ESE 07:12:18 10° S visible
17 Dec 3.0 18:17:05 10° SSE 18:22:10 87° WSW 18:27:17 10° NNW visible
18 Dec 5.0 06:25:49 10° NNE 06:30:20 31° E 06:34:48 10° SSE visible
18 Dec 3.3 17:40:44 10° SE 17:45:31 43° ENE 17:50:19 10° N visible
18 Dec 5.3 19:20:45 10° SW 19:24:42 23° W 19:28:41 10° NW visible
19 Dec 6.1 05:50:31 10° ENE 05:53:12 14° E 05:55:53 10° ESE visible
19 Dec 3.9 18:42:48 10° S 18:47:42 49° W 18:52:39 10° NNW visible
20 Dec 3.9 06:50:56 10° NNE 06:55:56 55° E 07:00:54 10° S visible
20 Dec 2.9 18:05:51 10° SSE 18:10:54 75° ENE 18:16:00 10° N visible
20 Dec 6.1 19:48:14 10° WSW 19:50:28 13° W 19:52:43 10° WNW visible
21 Dec 5.4 06:14:48 10° NE 06:18:58 25° E 06:23:06 10° SSE visible
21 Dec 3.6 17:29:44 10° SE 17:34:18 35° ENE 17:38:52 10° N visible
21 Dec 5.0 19:08:58 10° SSW 19:13:19 28° W 19:17:43 10° NW visible
22 Dec 6.3 05:40:28 10° ENE 05:41:47 11° E 05:43:05 10° ESE visible
22 Dec 3.5 18:31:22 10° S 18:36:23 63° W 18:41:27 10° NNW visible
23 Dec 4.4 06:39:46 10° NNE 06:44:37 43° E 06:49:26 10° S visible
23 Dec 3.0 17:54:40 10° SSE 17:59:39 60° ENE 18:04:39 10° N visible
23 Dec 5.8 19:35:54 10° SW 19:39:03 16° W 19:42:14 10° NW visible
24 Dec 5.8 06:03:54 10° NE 06:07:35 20° E 06:11:14 10° SE visible
24 Dec 3.8 17:18:50 10° SE 17:23:06 28° ENE 17:27:24 10° N visible
24 Dec 4.6 18:57:20 10° SSW 19:01:58 36° W 19:06:39 10° NNW visible
